This is the latest recevied weather packets stored in our database for station/object K5DLF-13. If no packets are shown the sender has not sent any weather packets the latest 10 day(s).
| Time | Temp. | Humidity | Pressure | Rain* | Wind** | Luminosity | Snow |
|---|---|---|---|---|---|---|---|
| 1777677864 | 16.11° C | 97% | 1006.7 hPa | 1.27 mm | - | 12 W/m² | - |
| 1777677564 | 16.67° C | 97% | 1006.7 hPa | 0.76 mm | - | 11 W/m² | - |
| 1777677265 | 16.67° C | 97% | 1006.8 hPa | 0.51 mm | - | 12 W/m² | - |
| 1777676964 | 16.67° C | 97% | 1006.8 hPa | 0.51 mm | - | 14 W/m² | - |
| 1777676664 | 16.67° C | 97% | 1006.7 hPa | 0.51 mm | - | 21 W/m² | - |
| 1777676365 | 16.67° C | 97% | 1006.7 hPa | 0.51 mm | - | 12 W/m² | - |
| 1777676064 | 16.67° C | 97% | 1006.9 hPa | 0.76 mm | - | 7 W/m² | - |
| 1777675765 | 16.67° C | 96% | 1007.3 hPa | 0.51 mm | - | 12 W/m² | - |
| 1777675465 | 16.67° C | 96% | 1007.5 hPa | 0.51 mm | - | 12 W/m² | - |
| 1777675164 | 16.67° C | 97% | 1007.5 hPa | 0.51 mm | - | 11 W/m² | - |
| 1777674865 | 16.67° C | 97% | 1007.4 hPa | 0.51 mm | - | 19 W/m² | - |
| 1777674565 | 16.67° C | 96% | 1007.3 hPa | 0.76 mm | - | 26 W/m² | - |
| 1777674266 | 16.67° C | 97% | 1007.9 hPa | 1.27 mm | - | 16 W/m² | - |
| 1777673965 | 17.22° C | 96% | 1008 hPa | 2.54 mm | - | 14 W/m² | - |
| 1777673665 | 17.22° C | 97% | 1007.9 hPa | 3.3 mm | - | 21 W/m² | - |
| 1777673365 | 17.22° C | 97% | 1007.8 hPa | 3.81 mm | - | 32 W/m² | - |
| 1777673065 | 17.22° C | 97% | 1007.6 hPa | 4.32 mm | - | 42 W/m² | - |
| 1777672765 | 17.22° C | 97% | 1007.4 hPa | 4.83 mm | - | 49 W/m² | - |
| 1777672465 | 17.22° C | 97% | 1007.7 hPa | 4.83 mm | - | 25 W/m² | - |
| 1777672165 | 17.22° C | 97% | 1007.2 hPa | 5.08 mm | - | 65 W/m² | - |
| 1777671865 | 17.22° C | 97% | 1007.4 hPa | 5.33 mm | - | 39 W/m² | - |
| 1777671565 | 17.22° C | 97% | 1007.6 hPa | 5.59 mm | - | 9 W/m² | - |
| 1777671265 | 17.22° C | 97% | 1007.3 hPa | 5.84 mm | - | 9 W/m² | - |
| 1777670965 | 17.22° C | 96% | 1006.5 hPa | 5.84 mm | - | 9 W/m² | - |
| 1777670665 | 17.22° C | 96% | 1006 hPa | 6.1 mm | - | 0 W/m² | - |
* Rain latest hour (hover to see other rain measurements)
** Current wind speed in m/s (hover to see current wind gust speed)